Location: Crocus Hill
(18.2167°N, 63.0667°W)
Time: 04:47:35
(UTC+00:00)

USA 238 DEB - Pass Details

Date: 26 January 2020
Orbit: 1021 x 1191 km, 63.4° (Epoch: 10 February)

Event Time Altitude Azimuth Distance (km) Brightness Sun altitude
Exits shadow 09:32:01 10° 333° (NNW) 3,089 5.7 -17.8°
Reaches altitude 10° 09:32:04 10° 333° (NNW) 3,069 5.7 -17.8°
Maximum altitude 09:39:28 84° 246° (WSW) 1,191 3.9 -16.1°
Drops below altitude 10° 09:46:59 10° 158° (SSE) 3,111 6.6 -14.4°
Sets 09:49:43 0° 158° (SSE) 4,070 7.3 -13.7°
